Location: Newark
(25.0000°N, 73.5000°E)
Time: 18:55:17
(UTC+00:00)

Altair - Pass Details

Date: 01 March 2021
Orbit: 1501 x 1683 km, 47.2° (Epoch: 10 April)

Event Time Altitude Azimuth Distance (km) Brightness Sun altitude
Rises 11:35:16 0° 200° (SSW) 4,632 10.6 19.6°
Reaches altitude 10° 11:38:34 10° 192° (SSW) 3,644 10.0 18.9°
Maximum altitude 11:46:46 38° 128° (SE) 2,145 8.2 17.2°
Drops below altitude 10° 11:55:00 10° 64° (ENE) 3,679 9.0 15.4°
Sets 11:58:19 0° 57° (ENE) 4,680 9.4 14.7°
